Weather in Glusk

Belarus     52°53′58″N   28°41′14″E
В апреле 2022 года жителям России запретили посещать сайт meteo.paraplan.net по решению Генеральной прокуратуры. Аудитория сайта уменьшилась в 10 раз. Владельцы сайта не видят смысла в поддержке погодного сервера в таких условиях. Сайт будет закрыт в октябре.
temp.,
°C
wind,
m/s
gust,
m/s
humid.,
%
clouds,
%
prec.,
mm/h
press.,
hPa
HPBL,
m
3 october, mon
mon300:00+7nw71393100 3.3 10001136
03:00+6nw81591100 6.2 9981099
06:00+6nw81691100 2.1 9961121
09:00+6wnw81594100 5.5 9951194
12:00+5wnw71495100 5.0 9951189
15:00+4wnw71497100 9.9 9961035
18:00+4wnw71297100 2.3 9961095
21:00+4wnw61197100 3.5 9971033
4 october, tue
tue400:00+4w51097100 0.4 998947
03:00+5w5997100 0.8 999996
06:00+5w4897100 0.5 9991052
09:00+5wnw4995100 1.0 10011038
12:00+6wnw5895100 0.4 1004972
15:00+7w5993100 1.2 10061064
18:00+7w41095100 0.8 10081074
21:00+7wnw41193100 0.9 1010916
5 october, wed
wed500:00+8wnw51289100 0.2 1012900
03:00+8wnw51289100 0.4 1014761
06:00+7wnw51293100 0.0 1016548
09:00+7w4992100 0.0 1019329
12:00+10w468099 0.0 1020633
15:00+12w4772100 0.0 1020993
18:00+10wsw41083100 0.0 1021507
21:00+10sw41289100 0.0 1021387
6 october, thu
thu600:00+10wsw31090100 0.0 1021373
03:00+10sw3987100 0.0 1020279
06:00+10sw3986100 0.0 1020290
09:00+10sw3108580 0.0 1019316
12:00+15wsw596792 0.0 1019570
15:00+17w6106594 0.0 1019950
18:00+15wnw51078100 0.0 1021552
21:00+12wnw412850 0.0 1023575
7 october, fri
fri700:00+10wnw311820 0.0 1026349
03:00+8w311900 0.0 1026329
06:00+7w310940 0.0 1027268
09:00+8w410870 0.0 1027408
12:00+13wnw48691 0.0 1028774
15:00+15w46563 0.0 10261060
18:00+12wsw22755 0.0 102638
21:00+9sw22830 0.0 102628